Regional Weather Roundup
Issued by NWS

Home | Current Version | Previous Version | Graphics & Text | Print | Product List | Glossary On
Versions: 1 2 3 4 5 6 7 8 9 10 11 12 13 14 15 16 17 18 19 20 21 22 23 24 25 26 27 28 29 30 31 32 33 34 35 36 37 38 39 40 41 42 43 44 45 46 47 48 49 50
000
ASUS43 KDMX 190707
RWRIA

WEATHER ROUNDUP FOR IOWA
NATIONAL WEATHER SERVICE DES MOINES IA
200 AM CDT SUN APR 19 2015

NOTE: "FAIR" INDICATES FEW OR NO CLOUDS BELOW 12,000 FEET WITH NO
SIGNIFICANT WEATHER AND/OR OBSTRUCTIONS TO VISIBILITY.

* - THESE STATIONS ARE NOT NWS STATIONS...THUS NOT UNDER NWS
QUALITY CONTROL.  THEY ALSO DO NOT REPORT WEATHER SUCH
AS PRECIPITATION OR FOG.

IAZ001>003-012>014-020>022-031>034-043>046-190800-
   NORTHWEST IOWA

CITY           SKY/WX    TMP DP  RH WIND       PRES   REMARKS
CARROLL *      CLOUDY    55  55 100 CALM      29.79F FOG
CHEROKEE *     CLOUDY    54  54 100 S5        29.78F
DENISON *      MOCLDY    55  55 100 SE3       29.77F
LE MARS *      CLOUDY    57  55  94 S5        29.78F
ORANGE CITY *  CLOUDY   N/A N/A N/A S5        29.77F
SHELDON *      CLOUDY    54  54 100 S7        29.76F
SIOUX CITY     CLOUDY    55  52  89 SE7       29.77F
SPENCER        FOG       53  51  93 SE7       29.77F VSB 1/4
STORM LAKE *   CLOUDY    54  54 100 CALM      29.79F FOG
$$

IAZ055>058-069>071-079>083-090>094-190800-
   SOUTHWEST IOWA

CITY           SKY/WX    TMP DP  RH WIND       PRES   REMARKS
ATLANTIC *     CLOUDY    55  55 100 CALM      29.79F FOG
AUDUBON *      MOCLDY    57  54  88 CALM      29.79F
CLARINDA *     FOG       55  55 100 CALM      29.80F VSB 3/4
COUNCIL BLFS * FOG       55  55 100 SE7       29.78F VSB 1/4
CRESTON *      CLOUDY    57  57 100 S9        29.80F FOG
HARLAN  *      FOG       54  54 100 CALM      29.82F VSB 0
LAMONI         CLOUDY    59  58  96 S8        29.80F FOG
RED OAK *      FOG       54  54 100 SE3       29.79F VSB 1/2
SHENANDOAH *   FOG       55  55 100 SE6       29.79F VSB 1/4
$$

IAZ047>049-059>061-072>074-084-190800-
   CENTRAL IOWA

CITY           SKY/WX    TMP DP  RH WIND       PRES   REMARKS
AMES           CLOUDY    56  54  93 SE6       29.80F
ANKENY *       MOCLDY    55  55 100 SE6       29.81S
CHARITON *     MOCLDY    57  57 100 S7        29.80F
DES MOINES     CLOUDY    58  56  93 SE8       29.80F
GRINNELL*      LGT RAIN  57  55  94 CALM      29.84S
KNOXVILLE *    CLOUDY    57  55  94 CALM      29.80F
MARSHALLTOWN   LGT RAIN  56  56 100 CALM      29.82R FOG
PELLA *        LGT RAIN  57  57 100 CALM      29.82F
PERRY *        CLOUDY    59  59 100 S5        29.79F FOG
$$

IAZ004>006-015-016-023>025-035-036-190800-
   NORTH CENTRAL IOWA

CITY           SKY/WX    TMP DP  RH WIND       PRES   REMARKS
ALGONA *       CLOUDY    57  57 100 SE10G18   29.78F
CLARION *      CLOUDY    55  55 100 SE12      29.79F
ESTHERVILLE    LGT RAIN  54  53  97 SE10      29.78F
FORT DODGE *   CLOUDY    57  54  88 S7        29.80S
MASON CITY     CLOUDY    55  32  41 SE10      29.82F
FOREST CITY *  CLOUDY    54  54 100 SE14      29.79F
IOWA FALLS *   DRIZZLE   57  54  88 SE16      29.82S
$$

IAZ007>011-017>019-026>030-037>042-050>054-066-190800-
   NORTHEAST IOWA

CITY           SKY/WX    TMP DP  RH WIND       PRES   REMARKS
CEDAR RAPIDS   CLOUDY    55  46  71 E13       29.82F
CHARLES CITY * CLOUDY    54  50  87 E12       29.83F
CLINTON *      CLOUDY    54  36  50 E14       29.88F
DECORAH *      CLOUDY    54  43  66 E13       29.85F
DUBUQUE        MOCLDY    53  33  46 E13       29.87F
MONTICELLO *   CLEAR     55  39  54 E8        29.85F
OELWEIN *      MOCLDY    55  45  67 E12       29.84F
WATERLOO       CLOUDY    55  49  80 E15       29.80F
$$

IAZ064-065-067-068-078-190800-
   EAST CENTRAL IOWA

CITY           SKY/WX    TMP DP  RH WIND       PRES   REMARKS
DAVENPORT      CLOUDY    54  35  48 E14       29.87S
IOWA CITY      CLOUDY    57  48  72 E7        29.84S
MT. PLEASANT * LGT RAIN  59  55  88 S9        29.84F
MUSCATINE *    PTCLDY    61  46  59 E7        29.84F
QUAD CITIES    CLOUDY    54  37  52 E10       29.86S
$$

IAZ062-063-075>077-085>089-095>099-190800-
   SOUTHEAST IOWA

CITY           SKY/WX    TMP DP  RH WIND       PRES   REMARKS
BURLINGTON     CLOUDY    60  58  92 W3        29.83F
FAIRFIELD *    CLOUDY    61  55  82 SE10      29.83F
FORT MADISON * CLOUDY    59  57  94 CALM      29.84F
KEOKUK *       CLOUDY    59  57  94 CALM      29.81F
OSKALOOSA *    CLOUDY    57  55  94 CALM      29.82F
CENTERVILLE *  PTCLDY    57  57 100 CALM      29.81F
OTTUMWA        LGT RAIN  57  56  96 E3        29.81F
WASHINGTON *   CLOUDY    59  59 100 S9G20     29.84R
$$

ABBREVIATIONS USED IN REMARKS
   TC - TEMPERATURES IN CELSIUS
  WCI - WIND CHILL INDEX
   HX - HEAT INDEX
  VSB - VISIBILITY
$$



USA.gov is the U.S. government's official web portal to all federal, state and local government web resources and services.